Flag Weather past 2 weeks in Lübeck, Schleswig-Holstein, Germany

Now
41 °F

Passing clouds.


Feels Like: 36 °F
Forecast: 32 / 40 °F
Wind: 7 mph from Southeast

Location: Luebeck-Blankensee

Current Time: Nov 26, 2014 at 10:27:22 AM

Latest Report: Nov 26, 2014 at 9:50 AM


Visibility: N/A

Pressure: 30.24 "Hg

Humidity: 87%

Dew point: 37 °F

Location of LübeckLocation

Historic Weather in Lübeck — Graph

°F

Lübeck temperature yesterday

Maximum temperature yesterday: 39 °F (at 12:20 PM)
Minimum temperature yesterday: 34 °F (at 7:50 PM)
Average temperature yesterday: 37 °F

Past Weeks' High & Low Weather Summary

 TemperatureHumidityPressure
High54 °F (Nov 14, 2:50 PM)100% (Nov 11, 9:20 AM)30.39 "Hg (Nov 11, 9:20 AM)
Low34 °F (Nov 21, 6:50 AM)66% (Nov 20, 1:20 PM)29.59 "Hg (Nov 16, 12:50 PM)
Average45 °F92%30.01 "Hg
* Reported Nov 11 9:20 AM — Nov 26 9:20 AM, Lübeck, Weather by CustomWeather, © 2014

Note: Actual official high and low records may vary slightly from our data, if they occured in-between our weather recording intervals... More about our weather records

Advertising

Lübeck weather history for previous 24 hours

 ConditionsComfort  
Time TempWeatherWind HumidityBarometerVisibility
9:20 AM
Nov 26
39 °FPassing clouds.6 mph93%30.24 "HgN/A
8:50 AM39 °FScattered clouds.7 mph93%30.24 "HgN/A
8:20 AM39 °FPartly sunny.6 mph93%30.24 "HgN/A
7:50 AM39 °FPassing clouds.6 mph100%30.24 "HgN/A
7:20 AM39 °FPassing clouds.3 mph100%30.24 "HgN/A
6:50 AM37 °FPassing clouds.2 mph100%30.24 "HgN/A
9:50 PM
Nov 25
34 °FFog.2 mph100%30.33 "Hg0 mi
9:20 PM34 °FFog.3 mph100%30.33 "Hg0 mi
8:50 PM36 °FFog.3 mph100%30.33 "Hg0 mi
8:20 PM36 °FFog.2 mph100%30.33 "Hg0 mi
7:50 PM34 °FFog.2 mph100%30.33 "Hg0 mi
7:20 PM36 °FFog.1 mph100%30.33 "Hg0 mi
6:50 PM36 °FFog.1 mph100%30.33 "Hg0 mi
6:20 PM36 °FFog.2 mph100%30.33 "Hg0 mi
5:50 PM36 °FFog.2 mph100%30.33 "Hg0 mi
5:20 PM36 °FFog.1 mph100%30.33 "Hg0 mi
4:50 PM37 °FFog.1 mph100%30.33 "Hg0 mi
4:20 PM37 °FFog.1 mph100%30.33 "Hg0 mi
3:50 PM37 °FFog.1 mph100%30.33 "Hg0 mi
3:20 PM39 °FFog.1 mph100%30.33 "Hg0 mi
2:50 PM39 °FFog.1 mph100%30.33 "Hg0 mi
2:20 PM39 °FFog.2 mph100%30.33 "Hg0 mi
1:50 PM39 °FFog.2 mph100%30.33 "Hg0 mi
1:20 PM39 °FFog.2 mph100%30.36 "Hg0 mi
12:50 PM39 °FFog.1 mph100%30.36 "Hg0 mi
12:20 PM39 °FFog.1 mph100%30.36 "Hg0 mi
11:50 AM37 °FFog.2 mph100%30.36 "Hg0 mi
11:20 AM37 °FFog.1 mph100%30.36 "Hg0 mi
10:50 AM37 °FFog.1 mph100%30.36 "Hg0 mi
10:20 AM37 °FFog.1 mph100%30.36 "Hg0 mi
Weather by CustomWeather, © 2014

See weather overviewHow to use our weather pages